Theta_e
311 313 315 317 318 320 321 322 322 322 323 322 321 321 321 320 320 320 321 322 322 322 323 323 322 322 322 322 321 322 321 322 321 322 323 324 324 324 323 323 323 322 322 323 322 320 322 323 322 322 322 320 320 321 322 321 321 321 320 318 318 317 317 315 314 316 317 317 319 317 318 316 312 312 314 317 317 318 317 315 313 310 311 312 309
305 307 311 315 317 318 320 321 320 320 321 322 321 321 321 321 320 320 321 321 322 322 322 322 323 323 322 322 323 323 322 320 320 322 322 323 323 323 323 324 323 323 322 323 323 323 322 321 321 322 321 320 321 322 321 319 320 319 318 317 315 318 318 317 315 317 314 314 314 316 317 319 314 310 311 313 314 316 316 315 312 310 310 312 309
302 303 307 312 315 316 318 319 320 321 322 321 322 322 321 321 320 320 321 321 321 322 322 321 322 323 323 323 323 323 324 323 323 323 323 323 323 323 323 323 323 323 323 322 322 322 322 322 322 322 322 321 319 319 319 319 319 319 318 318 317 314 316 314 315 318 319 312 313 312 311 311 315 313 312 311 312 314 314 314 312 309 309 311 309
303 302 302 307 311 314 316 318 319 320 320 321 322 321 321 321 321 321 320 321 321 321 320 323 322 323 323 323 322 323 321 322 322 323 322 322 321 322 323 323 323 323 323 322 322 323 323 322 323 322 322 322 321 320 319 319 319 319 318 318 319 317 314 315 315 318 320 315 312 312 311 309 308 312 315 315 310 312 312 313 313 309 308 309 308
303 303 301 303 306 310 314 317 319 319 320 320 321 322 322 322 322 321 321 321 321 321 321 322 321 320 321 319 319 319 319 319 320 320 320 320 321 321 321 322 322 322 323 323 322 322 323 323 323 323 322 322 321 320 320 320 320 320 319 318 317 317 317 318 315 316 318 321 320 312 310 306 307 313 308 313 307 310 309 310 309 310 307 306 307
304 304 303 302 304 307 311 315 316 318 319 320 322 322 323 323 322 322 322 321 321 321 321 321 320 320 319 318 317 317 317 318 317 318 317 317 318 321 322 322 322 322 323 323 322 321 322 322 322 322 322 322 320 321 322 322 321 320 319 320 318 319 319 318 317 313 316 318 320 321 319 314 313 309 310 310 307 308 307 308 309 308 309 306 306
303 303 303 302 302 303 307 311 315 317 319 321 321 322 322 323 323 322 322 321 321 321 321 320 321 321 320 320 320 319 318 319 321 321 320 320 321 320 321 322 322 322 322 322 323 322 322 322 322 322 322 322 321 320 320 320 321 321 321 319 320 319 318 316 317 318 314 314 316 318 319 319 319 314 310 307 307 307 305 306 306 306 306 306 305
304 303 302 303 303 303 304 308 312 316 318 320 321 321 321 322 323 322 322 321 321 321 321 320 320 320 320 320 319 320 319 320 320 320 321 321 320 320 320 321 321 322 322 322 322 322 321 322 322 322 321 322 321 320 321 321 321 322 321 321 320 320 319 317 317 319 316 316 314 314 315 317 318 317 315 312 311 308 308 304 303 304 304 304 305
303 303 303 302 302 303 304 305 310 314 317 318 320 321 321 322 322 323 322 322 321 321 320 320 320 321 320 320 319 319 321 321 320 319 319 319 320 320 319 320 319 320 322 322 322 322 320 321 322 321 321 321 320 321 321 321 321 321 319 318 318 318 319 319 319 319 318 318 316 314 315 315 316 315 314 312 309 308 309 311 308 300 300 302 304
302 303 304 304 303 303 304 305 307 310 315 318 319 320 321 321 321 321 322 322 322 321 319 320 320 319 320 319 319 320 320 319 318 318 318 318 318 318 319 319 319 319 320 321 321 322 322 321 321 321 321 321 319 320 320 320 320 320 321 320 319 319 319 319 318 320 321 321 320 319 314 313 313 312 311 311 310 310 307 307 309 307 307 309 306
300 301 301 302 303 303 303 303 306 308 312 315 317 319 320 320 321 320 321 322 322 321 320 319 320 320 320 320 320 319 320 319 317 318 317 316 317 318 318 318 319 319 319 319 321 321 321 321 321 321 322 321 319 320 319 320 320 320 321 321 319 319 319 319 318 319 320 320 320 320 319 317 316 314 313 312 311 309 307 307 310 312 311 312 313
299 299 300 300 300 300 300 301 303 306 309 312 315 317 318 320 320 320 320 321 322 322 320 320 320 320 320 320 320 320 320 319 318 318 318 317 318 318 318 318 317 318 318 318 318 320 320 321 320 321 320 321 320 321 321 321 321 321 320 320 319 319 320 319 320 319 318 319 319 320 319 320 319 318 318 318 315 313 312 312 312 312 308 309 312
296 297 298 298 299 300 300 300 302 303 307 310 313 316 318 319 320 319 319 320 321 322 321 320 319 319 319 320 320 320 320 320 320 319 320 319 318 318 317 317 317 316 317 318 318 319 319 319 320 319 320 320 321 322 322 322 321 321 320 320 320 320 320 320 320 320 320 319 319 321 321 321 320 320 321 319 318 317 315 312 313 313 309 311 312
295 296 297 298 299 299 300 300 301 302 305 308 311 314 317 318 319 319 320 320 321 321 321 320 320 320 320 320 320 320 320 320 320 320 320 320 319 318 318 318 318 317 318 318 320 320 319 320 320 321 322 322 322 323 323 323 322 322 322 321 321 321 322 321 321 321 321 321 321 321 321 320 320 321 321 320 318 316 312 311 310 308 309 309 306
295 295 296 297 298 298 299 299 300 301 303 305 309 312 315 316 318 318 319 320 321 321 321 321 321 321 321 321 321 321 320 320 320 321 321 320 319 319 319 319 319 319 320 321 321 321 320 320 320 321 322 323 323 323 323 324 323 323 322 323 322 323 322 322 321 321 321 320 320 320 320 320 321 321 321 320 320 318 317 315 311 308 307 303 303
296 296 297 297 298 298 297 297 298 299 301 303 307 310 313 315 317 318 319 320 320 319 321 321 321 321 321 320 321 320 319 320 320 320 321 321 320 320 320 320 320 321 321 321 321 321 321 321 320 320 322 322 323 323 324 323 324 323 323 323 322 323 323 322 322 322 321 321 321 321 320 320 322 322 321 320 320 319 317 316 314 312 308 305 300
294 294 295 296 296 295 296 297 298 298 299 301 305 308 312 314 315 317 318 319 319 319 320 321 322 321 320 321 321 320 320 319 320 320 320 320 321 320 320 320 320 320 320 320 321 321 322 322 322 322 322 322 322 323 323 323 323 323 322 322 322 323 321 322 322 322 322 322 321 321 321 321 321 321 321 319 319 318 317 316 315 313 312 307 304
293 293 293 294 294 294 294 295 296 297 298 300 303 307 310 312 314 315 316 316 317 318 319 320 320 320 320 320 321 321 321 320 321 320 320 319 319 320 320 319 319 320 320 319 320 319 320 317 321 321 322 322 322 322 322 322 322 322 322 322 323 323 323 322 322 322 322 322 320 321 321 320 320 319 319 320 319 318 316 316 315 315 314 309 309
291 291 292 292 292 292 292 293 294 294 295 296 298 302 305 306 310 313 314 315 316 317 317 318 319 320 320 320 320 321 321 321 321 321 320 319 319 319 319 320 320 319 318 318 318 318 318 318 320 321 321 321 321 322 322 321 321 321 320 321 321 322 321 320 320 319 320 320 319 319 320 319 319 318 318 318 317 316 316 316 315 315 313 312 311
291 290 291 291 291 291 291 292 292 293 293 293 294 295 301 305 306 308 309 310 311 313 314 315 317 318 319 319 319 320 320 321 320 320 319 319 319 319 319 318 319 317 318 318 318 317 317 317 317 318 319 319 319 320 320 320 320 320 320 319 318 318 318 318 317 317 318 318 317 315 315 314 315 314 313 311 312 312 313 314 314 313 312 312 311
290 290 291 291 291 290 288 288 289 288 288 289 292 295 299 301 304 306 308 309 310 312 312 314 315 316 316 317 317 317 318 319 319 318 319 319 319 318 319 319 316 316 316 316 316 316 317 316 317 316 317 317 318 318 319 319 319 318 316 317 316 315 315 315 314 313 312 314 313 313 312 311 310 311 309 307 308 311 310 310 310 309 308 308 307
291 292 291 291 290 289 288 287 286 285 288 288 290 291 293 297 302 304 305 307 309 309 310 312 312 314 314 315 315 314 315 315 317 317 317 318 318 317 317 314 314 315 313 315 315 315 315 316 316 316 315 316 316 318 317 317 315 315 314 315 314 312 312 312 310 311 309 308 308 308 307 307 307 308 306 306 307 306 305 305 305 304 306 307 306
293 292 290 289 288 288 288 287 287 287 289 290 290 292 294 294 295 298 302 305 307 309 308 308 309 310 310 311 311 311 312 313 314 316 315 316 316 314 311 312 312 311 310 313 313 313 313 314 314 314 315 314 315 315 315 314 314 314 313 313 313 311 310 309 308 308 308 308 306 306 307 306 304 304 304 304 303 303 303 304 305 303 302 303 300
290 288 287 288 288 287 287 288 289 289 290 290 289 290 291 292 293 294 297 301 301 302 302 303 304 306 306 305 307 308 308 310 311 313 313 314 313 311 308 310 310 310 309 308 309 311 311 311 311 311 311 312 312 312 311 310 313 311 310 312 310 309 309 309 309 308 308 305 305 303 303 303 300 301 301 300 301 301 301 301 300 299 298 299 296
289 288 287 286 286 287 290 289 289 289 288 289 289 290 290 291 291 292 295 295 296 296 299 300 300 301 300 302 303 304 306 307 309 309 310 310 308 307 305 308 307 307 308 306 304 305 307 308 308 309 309 309 310 309 310 308 308 308 310 310 309 307 306 306 306 305 301 303 302 302 302 300 299 299 297 296 298 296 297 295 296 295 293 293 292
288 287 287 288 288 287 287 287 287 287 289 289 289 288 288 289 291 291 292 291 291 291 294 296 295 298 299 300 301 301 304 306 307 308 308 307 305 305 305 304 306 308 305 304 305 302 303 305 306 308 309 308 307 307 307 308 306 304 305 306 305 303 302 301 300 300 299 299 300 299 299 298 298 298 299 298 296 296 294 294 293 292 291 291 292
287 287 287 286 287 288 288 287 287 287 287 288 289 290 289 289 290 290 290 290 289 289 291 293 293 295 299 299 299 300 302 303 304 305 304 303 303 303 302 303 301 305 304 302 301 302 301 304 304 305 306 306 305 304 304 305 304 303 303 302 299 298 298 297 297 297 297 297 297 297 296 295 297 297 299 298 295 294 293 293 294 292 291 291 291
285 285 286 288 288 287 287 287 287 288 287 287 288 289 290 291 292 291 290 290 290 288 289 290 291 292 295 298 298 298 299 300 301 301 301 301 301 300 301 301 299 303 303 302 302 302 300 300 302 302 303 301 303 302 302 301 301 301 299 298 297 297 296 294 293 292 292 293 293 293 293 295 296 296 297 297 294 294 293 293 291 291 291 292 291
285 287 286 287 289 289 288 287 287 287 288 288 288 288 288 288 289 289 289 290 291 289 289 290 290 291 293 295 296 296 296 296 296 298 298 299 299 299 298 298 297 299 300 301 302 302 297 296 294 296 297 296 299 301 300 299 298 296 298 298 297 296 294 293 292 291 290 290 291 292 292 292 293 291 290 292 293 294 295 293 291 291 291 292 292
287 287 287 287 288 287 288 287 288 288 289 289 289 289 289 289 290 289 289 291 290 289 289 290 290 291 294 294 294 294 294 295 295 296 298 297 297 297 296 295 296 296 295 293 294 295 297 298 296 293 293 295 297 297 293 294 296 299 297 298 296 294 293 294 293 291 289 290 291 291 291 288 288 287 288 289 290 291 291 295 293 292 291 291 290
288 287 288 287 287 287 286 287 288 289 289 290 291 290 289 289 289 289 289 290 290 289 290 290 291 291 293 294 294 293 294 294 295 296 296 295 296 295 295 295 294 293 293 292 293 294 294 294 296 296 294 294 295 295 291 294 296 296 296 296 296 294 294 293 292 292 291 290 289 290 290 288 287 287 288 288 290 290 290 291 291 290 291 292 289
290 290 288 287 287 287 287 288 288 289 289 290 290 290 289 291 290 289 289 290 290 290 291 291 291 292 293 294 294 293 293 294 294 294 294 294 294 293 294 294 293 292 292 291 292 294 293 292 293 293 294 293 292 291 293 295 295 295 294 297 296 294 292 292 291 291 291 290 290 289 289 289 289 290 290 289 289 289 289 289 290 289 289 290 291
293 293 292 293 292 291 291 291 290 292 293 292 291 290 292 293 291 289 288 290 290 290 291 291 292 293 294 294 294 293 293 293 293 293 293 293 293 293 293 292 293 292 291 292 294 293 293 292 293 293 293 291 291 291 294 294 295 295 294 294 293 292 291 291 290 290 290 290 289 289 289 288 288 285 287 288 288 288 287 288 288 288 288 290 291
295 294 295 296 294 293 292 293 295 296 294 291 290 292 294 292 290 288 289 290 291 291 291 292 293 293 294 294 294 294 293 293 293 293 292 293 293 294 293 292 292 290 292 292 291 292 292 293 293 293 293 292 292 291 293 294 294 294 294 294 294 292 292 291 291 291 291 290 290 290 289 288 287 286 287 287 287 286 286 287 287 287 287 286 288
298 298 296 295 295 295 295 294 295 294 292 291 291 291 291 289 288 288 288 290 290 291 291 292 293 294 294 294 294 293 293 293 293 292 292 293 293 292 291 291 292 291 291 291 291 291 291 291 291 292 292 291 292 291 293 293 293 294 294 294 293 293 292 291 291 290 290 291 291 289 289 288 286 286 286 286 286 286 286 285 285 285 285 285 285
298 299 301 301 301 300 300 300 297 294 292 291 294 292 290 290 288 289 288 289 290 291 291 292 293 293 294 294 293 293 293 293 292 292 292 292 292 292 291 290 291 291 291 290 290 291 290 290 290 290 291 291 292 291 292 292 293 294 294 291 291 291 291 290 290 289 289 289 288 288 288 287 286 286 286 287 286 286 285 285 285 284 284 284 284
299 299 300 301 301 301 301 298 296 296 294 293 292 290 290 289 287 288 288 288 289 290 290 291 292 293 293 294 293 293 293 293 292 291 291 292 291 291 291 290 290 290 290 290 290 290 290 290 289 289 291 291 291 290 291 292 292 293 292 290 290 289 289 289 288 287 287 287 287 287 286 286 285 285 286 288 288 286 284 283 283 282 282 283 284
301 300 299 299 300 299 296 295 295 294 293 293 292 289 289 289 288 287 287 287 288 289 291 291 291 292 293 293 293 293 292 292 291 291 292 292 292 291 291 290 291 290 289 290 291 290 289 289 289 289 291 291 289 289 290 291 292 292 290 289 289 289 287 287 285 285 286 286 285 285 285 285 285 285 286 288 288 285 282 281 281 280 279 279 281
301 300 300 301 300 297 295 294 293 294 296 292 290 288 288 289 289 288 287 288 288 290 290 291 292 292 292 292 293 293 292 292 291 291 291 290 290 290 290 289 290 290 290 289 289 290 289 289 289 290 288 290 289 288 289 290 291 292 290 289 289 288 287 286 285 284 284 284 283 284 284 284 285 285 287 288 288 285 282 281 280 279 278 278 281
298 298 298 297 294 294 295 294 293 295 294 291 288 287 288 289 289 288 287 288 290 291 292 292 292 291 290 291 291 291 292 291 291 290 290 290 289 289 289 289 289 290 290 289 289 289 288 288 288 288 288 290 290 288 288 290 291 291 290 288 288 289 288 286 286 284 282 282 282 282 283 285 286 286 287 288 288 286 284 282 281 279 278 280 281
294 294 292 293 291 292 294 293 294 294 293 290 287 288 288 289 289 288 288 290 292 293 292 291 289 289 289 290 290 290 290 290 290 290 289 289 289 289 289 288 289 289 289 289 288 288 288 288 288 288 288 288 289 288 287 289 291 291 290 289 288 289 288 287 286 284 284 283 282 282 282 284 287 287 288 288 288 288 285 282 281 280 280 281 279
289 289 289 290 289 289 289 289 290 290 290 288 287 288 288 288 288 288 290 292 292 292 290 289 289 289 289 289 289 290 290 290 289 289 289 288 288 288 288 288 289 289 288 288 287 288 289 288 288 287 288 288 287 287 288 288 290 290 290 289 289 289 288 287 285 284 284 284 283 282 282 283 286 286 287 288 288 288 286 282 282 285 285 284 279
292 291 290 289 289 289 290 290 290 288 287 287 287 287 288 287 288 289 291 291 291 289 289 288 288 288 288 288 288 289 289 289 289 289 289 288 288 288 288 288 288 288 288 288 287 287 288 288 287 287 287 287 287 287 287 287 288 290 290 290 289 288 288 287 287 284 284 284 282 281 280 283 285 286 286 288 288 288 286 284 286 287 287 285 279
287 287 287 286 287 288 289 288 287 287 286 285 287 287 287 287 288 291 290 289 288 287 288 288 287 288 288 288 288 288 288 289 289 288 288 288 287 288 288 288 288 289 289 288 289 288 288 288 288 287 287 287 287 287 286 286 287 289 290 290 289 289 288 287 287 287 284 283 281 281 279 283 285 286 287 287 288 285 285 287 287 287 286 281 278
287 288 286 285 287 287 287 287 287 286 285 284 285 287 287 287 289 289 288 287 287 286 287 287 287 287 287 287 287 287 288 288 288 288 288 288 287 287 288 288 288 289 289 289 289 288 288 289 289 288 287 287 286 286 286 286 286 287 289 290 289 289 288 287 285 283 282 281 282 282 283 284 285 286 286 286 286 286 286 285 284 281 279 278 279
283 284 284 284 283 282 283 285 287 286 284 283 284 286 287 288 288 288 287 286 286 286 286 287 287 287 287 287 287 287 287 288 288 288 288 289 288 288 288 288 288 289 289 289 290 289 289 289 289 289 288 287 286 286 286 285 285 286 287 288 288 288 286 286 284 282 282 283 284 284 285 285 284 282 280 278 280 281 281 280 279 277 275 277 280
286 286 284 283 282 285 285 285 286 285 284 282 281 284 286 287 286 284 283 284 285 286 287 286 286 286 286 286 287 287 287 287 287 288 289 289 289 288 288 288 288 289 289 289 290 289 289 289 289 289 289 287 285 285 285 284 285 286 287 287 287 287 285 284 282 282 282 283 283 283 282 281 281 280 280 280 278 278 276 275 273 274 276 278 279
284 284 281 281 282 283 284 284 286 287 283 281 280 281 283 283 283 282 281 282 284 285 286 286 286 286 286 286 287 286 287 287 287 288 288 288 289 289 288 289 288 289 289 289 290 289 289 289 290 290 289 287 286 285 285 285 284 285 286 286 286 285 285 284 281 280 279 280 280 281 280 277 276 275 275 273 273 272 273 273 273 272 273 275 278
285 286 282 284 283 283 284 283 285 285 282 281 280 280 280 280 282 279 279 282 285 284 285 284 285 285 286 286 286 286 287 287 287 288 288 289 289 288 289 289 289 290 291 290 290 290 290 290 291 290 289 287 286 285 285 286 284 285 283 281 282 282 282 282 281 279 276 275 276 276 275 275 275 274 274 274 273 274 272 272 272 273 272 272 274
283 282 282 282 281 281 282 283 284 282 280 280 279 278 278 277 277 278 278 283 284 283 282 284 284 284 284 284 285 286 287 287 287 287 287 288 287 288 289 289 289 288 288 289 289 290 291 291 290 290 290 289 288 287 286 285 285 284 284 283 283 283 282 280 281 281 279 277 276 275 275 275 274 274 274 274 274 274 274 273 273 274 272 273 272
284 283 285 284 284 282 280 282 283 280 279 278 278 276 275 276 275 276 276 280 280 283 284 284 284 284 284 285 285 286 286 287 287 287 287 287 288 288 287 288 289 288 288 288 288 288 289 289 290 289 286 288 286 286 286 285 284 284 284 284 283 283 283 282 283 279 277 276 274 273 271 273 273 274 274 274 274 274 273 273 272 272 272 273 272
Wind_Speed
9 12 10 11 12 12 11 10 10 10 11 11 11 11 11 10 10 12 8 8 8 8 10 10 10 8 7 10 10 7 8 8 8 8 10 10 11 11 9 9 9 9 7 8 10 8 7 6 7 7 7 8 8 9 7 6 6 5 4 5 7 7 7 5 4 3 4 7 5 6 6 5 6 6 8 6 5 4 4 5 4 4 5 5 6
6 6 7 9 10 11 10 10 11 12 13 13 14 14 12 11 12 10 8 9 10 9 9 10 10 10 9 10 9 9 9 9 10 10 11 10 10 10 10 10 10 9 9 8 7 8 8 9 9 9 9 8 8 8 8 7 6 7 6 5 5 7 7 3 5 5 4 6 7 6 4 4 5 5 7 8 7 6 6 6 5 6 6 7 6
10 10 6 9 10 11 10 11 12 15 14 15 15 13 13 11 10 10 9 9 9 10 9 10 8 9 9 6 9 8 8 8 8 8 8 10 9 10 9 9 9 10 10 10 9 10 9 7 8 7 9 8 7 8 8 8 8 9 8 8 6 4 6 4 6 9 6 3 3 3 6 4 1 2 4 8 8 6 5 7 6 6 8 7 6
14 12 11 11 11 11 10 11 13 12 12 12 12 14 13 12 10 11 10 10 9 11 13 9 9 10 9 8 7 7 6 7 8 7 7 7 8 9 9 8 9 10 11 11 9 10 11 10 7 8 9 8 9 9 9 10 9 9 8 9 9 8 6 6 7 7 6 4 6 6 3 1 7 4 6 2 4 6 7 9 7 7 6 6 5
13 11 10 10 10 12 14 15 12 13 14 14 14 14 12 16 15 13 11 12 10 11 11 8 8 7 7 5 3 4 2 3 5 9 8 7 7 9 10 11 11 9 8 9 11 11 11 10 10 8 9 9 9 10 10 11 10 10 10 9 10 10 11 9 6 8 9 9 8 2 4 4 6 3 2 4 2 3 8 8 7 7 7 7 6
14 14 13 13 14 13 12 12 13 13 14 15 14 15 15 14 14 12 10 10 11 12 11 9 9 8 8 9 10 9 10 9 11 10 8 9 10 9 9 10 11 11 10 11 11 9 11 11 10 10 10 9 10 11 10 8 10 11 11 11 11 12 11 8 7 6 10 11 12 10 7 7 4 2 1 5 1 4 2 5 7 7 6 6 6
12 11 8 10 13 12 13 13 15 15 16 12 12 15 15 14 14 14 12 11 12 12 13 11 9 9 11 11 10 10 10 10 8 7 8 7 7 9 9 9 11 11 10 10 10 11 10 9 11 11 10 10 9 9 10 11 10 11 9 10 11 9 9 11 12 9 6 8 9 10 11 9 8 6 6 1 5 1 3 5 6 6 7 7 7
13 14 13 13 13 14 17 17 15 17 14 12 14 14 15 16 15 15 13 12 11 11 12 13 10 9 11 12 11 10 11 12 9 8 8 7 8 9 8 8 9 10 11 11 11 10 11 11 10 11 11 11 9 10 12 11 9 9 10 11 10 9 11 11 12 11 10 8 8 11 11 10 11 10 9 10 9 8 5 1 4 6 5 7 8
14 13 13 15 15 15 14 13 15 13 12 14 15 14 14 14 15 13 14 12 11 14 12 13 14 12 11 9 10 11 12 9 6 7 8 8 9 7 8 7 8 9 11 11 11 12 10 11 12 11 10 11 10 11 11 10 11 11 10 10 11 10 11 11 11 10 10 11 6 9 9 10 9 9 8 6 7 7 10 8 7 1 3 7 8
9 14 14 13 14 14 12 8 6 11 11 12 12 11 11 11 13 14 14 12 12 14 14 14 15 13 11 12 15 13 10 8 7 8 8 8 10 9 8 7 8 9 10 11 11 11 11 11 11 12 12 11 9 10 10 11 11 11 11 12 11 12 10 10 12 10 9 9 8 6 7 5 7 6 6 7 8 9 10 7 5 7 8 6 6
10 11 11 11 9 9 7 10 13 9 9 10 10 10 10 11 12 14 15 12 12 14 14 16 14 13 13 14 16 16 13 11 9 10 8 7 9 8 8 7 8 9 8 10 11 11 11 11 11 12 11 9 9 10 11 11 11 12 11 10 11 12 10 10 10 10 9 8 10 9 10 8 8 7 8 7 9 7 6 7 7 8 11 11 8
8 9 11 9 7 8 6 10 12 11 10 12 12 10 10 11 12 14 13 14 12 13 14 14 13 14 14 15 16 16 13 11 13 14 12 12 11 9 7 6 8 7 8 9 10 11 10 10 11 10 10 11 11 10 9 10 10 9 9 9 9 10 10 10 9 10 11 9 8 7 8 8 9 8 6 7 8 8 9 10 8 5 6 7 6
8 9 8 8 9 10 9 11 9 8 12 13 13 12 12 13 15 16 15 14 14 13 15 15 14 14 15 16 15 12 12 13 13 13 11 11 10 9 8 9 8 9 10 10 11 12 11 10 10 10 10 10 10 10 10 9 8 8 8 9 9 10 9 10 9 10 11 10 10 9 9 9 10 8 7 9 8 8 8 9 8 6 8 7 6
8 9 8 8 9 9 9 10 10 10 11 12 12 11 11 12 14 16 17 15 15 14 15 14 15 15 15 14 13 11 12 13 12 12 11 10 9 10 9 9 9 12 11 11 10 11 10 11 10 10 10 10 10 10 10 9 9 8 9 9 10 10 10 12 11 12 11 12 11 9 10 10 9 8 10 9 8 7 7 9 9 6 6 8 2
8 8 9 9 10 9 9 9 9 10 10 11 10 12 11 12 12 15 14 14 15 15 14 15 14 15 14 13 12 11 12 11 11 11 10 10 9 10 10 10 10 10 10 10 10 11 11 11 11 11 10 10 9 10 9 9 9 9 9 10 9 9 10 10 10 11 11 11 10 10 10 9 9 9 9 9 8 9 9 8 7 8 6 6 7
8 9 10 10 10 8 7 8 9 9 10 9 11 10 11 13 14 15 16 14 14 15 15 16 16 14 14 13 14 13 10 9 9 9 9 9 10 11 11 11 10 9 9 9 9 10 11 11 11 11 11 10 10 10 10 9 9 9 9 9 11 8 10 12 11 10 12 13 12 11 9 9 10 10 9 9 8 8 8 7 7 8 9 7 3
8 9 10 10 8 8 9 10 9 8 8 10 11 11 12 11 11 13 13 11 12 13 14 14 13 12 13 14 13 12 13 14 13 13 11 10 10 10 10 11 9 9 8 9 9 10 9 10 11 11 10 10 9 10 10 9 9 9 8 8 9 8 9 10 9 9 10 11 10 11 9 9 9 9 9 8 8 7 7 6 6 7 6 8 5
7 8 10 9 7 8 8 7 8 8 8 8 9 8 8 9 11 12 12 13 12 12 13 12 13 13 13 13 14 14 13 14 13 12 10 9 9 9 9 8 11 9 9 8 9 9 9 10 10 9 9 9 10 9 9 9 9 8 9 9 8 8 9 8 8 9 9 8 9 8 8 8 8 8 9 9 8 7 7 7 7 7 8 10 8
9 10 9 9 9 9 8 9 7 7 6 5 4 5 5 6 7 10 12 12 12 11 10 9 10 10 11 13 13 13 12 11 10 9 8 10 11 11 11 11 8 8 8 8 9 9 9 10 9 9 9 9 9 9 9 8 8 8 8 8 8 8 7 7 6 7 7 7 8 8 8 8 8 8 8 7 7 7 7 7 7 7 7 9 9
7 7 8 7 6 7 8 7 7 8 7 7 6 4 6 7 7 8 6 5 6 8 9 11 11 11 11 9 10 11 11 11 10 10 10 11 12 11 11 10 11 7 9 9 9 10 10 10 9 9 8 8 8 8 8 8 8 8 8 7 7 7 7 8 7 7 6 7 7 7 7 7 6 5 5 4 4 5 5 6 7 7 8 8 8
7 7 7 5 4 4 4 6 6 4 4 5 6 7 7 6 8 8 10 9 9 10 9 10 9 10 10 12 11 10 10 9 9 9 11 11 10 10 10 10 6 9 8 9 10 10 10 10 10 9 9 8 8 8 7 7 7 7 7 7 6 7 7 6 6 6 5 6 7 7 6 5 4 5 4 3 4 4 5 5 5 4 5 5 5
7 8 6 7 5 6 5 3 2 2 4 5 6 5 6 8 9 8 7 8 10 9 10 10 8 8 10 10 8 6 7 7 9 10 11 11 11 11 10 6 9 8 8 10 10 9 9 9 9 9 8 8 8 8 7 7 7 7 7 6 6 6 7 7 5 6 5 5 5 6 5 5 5 6 4 4 5 5 4 4 5 5 6 6 4
9 7 6 6 6 6 6 6 5 5 4 4 4 6 8 7 7 7 8 10 9 9 7 6 7 8 9 7 6 7 8 9 11 11 11 12 11 9 6 8 8 7 8 9 9 8 8 8 9 8 8 8 8 8 7 7 8 8 7 6 6 6 6 6 6 6 5 5 5 6 6 5 4 4 5 5 4 4 3 4 6 4 5 5 2
7 6 6 7 7 6 6 6 5 5 6 6 5 5 6 6 7 6 10 10 7 6 6 6 6 7 6 6 8 7 9 9 11 11 12 11 9 7 6 7 8 7 9 7 6 7 8 8 8 8 8 8 8 7 7 7 8 8 6 7 6 6 6 6 6 5 6 5 6 5 5 5 4 4 4 4 4 4 4 4 4 4 5 5 2
8 7 7 6 5 6 7 6 5 5 5 5 5 5 5 5 5 8 8 6 5 4 6 6 5 7 6 7 8 8 9 10 11 9 10 8 7 6 6 8 7 8 8 6 6 6 7 8 8 8 8 8 8 7 8 7 7 6 7 7 6 6 6 6 6 5 5 5 5 5 4 4 3 4 4 4 4 4 5 4 5 4 3 2 2
7 7 6 5 5 4 5 6 5 5 5 5 5 5 5 6 7 6 6 5 5 2 4 4 4 6 7 8 9 8 10 11 11 10 10 8 7 7 7 7 8 9 7 7 8 7 8 8 7 8 8 8 8 7 8 8 7 6 5 5 5 5 5 5 4 4 5 4 4 4 4 3 3 4 4 4 3 5 4 5 4 3 3 3 3
7 6 5 5 4 5 5 5 5 5 5 6 6 7 6 6 7 5 4 4 3 3 4 5 5 7 8 10 9 10 9 9 9 8 6 6 7 7 8 8 7 7 7 8 7 8 7 8 8 7 8 7 7 7 7 6 6 5 5 5 5 5 4 3 3 4 4 4 4 3 3 3 4 4 5 5 5 5 5 4 5 4 4 5 4
5 5 4 4 5 3 4 5 5 6 6 6 6 7 6 7 8 6 5 5 4 5 6 6 7 8 9 10 9 7 7 8 6 5 6 6 7 7 8 6 6 8 8 8 8 8 7 7 7 7 7 6 7 7 6 5 5 5 5 4 4 5 4 4 4 3 3 3 3 3 3 4 5 5 5 5 5 6 4 4 3 4 4 5 4
4 4 3 3 3 3 3 5 6 5 7 7 6 6 6 6 6 5 5 6 5 6 7 8 8 10 11 8 6 6 6 6 5 5 6 7 7 7 6 6 7 7 6 7 7 7 7 6 4 5 5 5 6 6 6 6 6 4 4 5 5 5 5 5 4 3 2 2 3 3 3 3 5 5 7 7 6 5 4 4 3 4 5 5 5
3 4 4 4 5 5 5 5 6 6 7 7 7 7 7 7 7 6 7 6 7 8 9 10 11 12 8 6 6 6 6 5 6 7 7 7 6 6 7 6 7 6 6 5 5 5 7 7 6 4 4 5 5 4 6 9 7 7 6 5 5 5 6 5 5 4 3 2 3 4 4 5 6 7 7 7 7 7 6 5 5 5 6 6 4
4 5 6 5 5 5 5 5 7 8 9 9 8 6 6 7 7 6 7 7 8 10 10 10 13 10 7 6 6 6 6 7 8 7 6 7 7 6 7 7 6 6 6 6 6 6 6 6 6 7 6 5 4 5 8 8 9 9 7 6 6 5 4 5 6 6 6 5 4 4 4 5 5 4 5 6 5 5 6 6 5 7 6 7 5
5 5 5 6 6 6 6 7 7 8 8 8 7 6 5 9 5 7 8 7 8 9 11 11 10 8 8 8 7 6 7 8 7 8 7 7 6 7 7 7 6 6 6 5 5 6 5 5 5 5 6 6 5 6 9 10 10 10 9 7 6 6 6 6 6 7 6 6 5 5 4 4 4 5 4 3 2 2 2 2 3 3 5 5 6
6 6 6 6 7 7 7 7 7 9 9 7 6 6 8 7 5 7 6 7 8 10 10 10 8 8 9 8 7 8 8 8 8 7 7 7 8 8 8 8 9 6 5 7 7 6 6 5 6 7 6 6 5 7 10 11 11 12 11 8 5 6 7 7 6 6 6 6 6 6 5 4 3 4 4 3 4 3 2 3 3 3 3 5 5
6 7 7 8 6 6 7 9 9 10 7 4 6 7 8 3 4 5 7 7 7 8 9 9 8 9 8 8 9 9 9 9 8 8 7 8 9 10 7 6 6 6 8 7 6 7 6 7 7 7 6 6 6 9 12 12 12 12 12 10 7 7 7 7 7 8 7 7 7 7 6 6 4 4 3 4 4 5 4 3 2 2 2 2 3
8 9 7 8 9 8 9 9 10 9 7 5 6 7 6 2 4 4 5 6 6 6 8 9 9 9 8 9 10 10 10 9 9 8 8 9 10 8 8 8 8 9 9 9 9 8 8 8 7 7 6 7 8 12 13 13 13 13 13 11 7 7 7 6 6 7 7 7 7 6 6 6 5 4 4 6 5 5 4 3 3 2 1 0 1
10 11 13 13 12 12 11 10 5 5 6 6 8 5 5 6 4 5 5 5 5 7 8 8 10 10 10 10 11 11 10 9 9 9 10 11 10 10 10 8 7 7 6 6 6 8 9 9 8 8 8 9 8 13 14 14 14 13 13 7 7 7 7 6 6 6 6 5 6 6 6 6 6 6 6 8 5 4 3 4 4 3 1 1 1
11 10 14 15 13 12 12 7 7 6 5 6 7 4 5 4 5 6 6 5 6 8 10 10 11 10 11 11 11 11 11 10 10 10 11 11 11 11 9 7 8 8 9 9 10 9 7 9 9 9 10 8 8 11 13 13 13 14 10 5 6 5 6 7 6 6 5 5 6 6 7 7 6 6 6 8 8 6 4 5 5 4 2 1 0
14 12 10 10 11 9 7 5 6 6 7 7 5 2 3 4 6 5 6 6 7 11 11 10 11 12 12 11 10 11 11 11 10 13 13 11 8 6 8 7 10 10 10 10 8 7 7 8 10 10 10 8 7 10 14 13 14 15 12 8 7 6 6 5 5 5 4 4 5 7 6 7 6 5 7 8 9 7 5 5 5 6 5 3 0
12 10 13 14 12 7 5 3 5 7 10 5 1 2 4 6 6 6 6 7 10 12 11 12 14 12 9 8 9 10 10 10 11 12 9 9 9 9 5 5 7 6 6 5 7 7 7 7 8 9 10 11 8 9 14 14 15 16 12 7 7 7 8 6 5 5 3 3 3 4 7 6 5 6 8 7 9 6 4 5 5 6 5 5 3
11 10 9 7 4 5 7 6 6 10 8 5 3 4 5 7 8 5 6 9 12 14 14 10 8 5 6 7 8 9 9 10 11 8 7 7 5 5 7 7 6 5 5 5 6 6 8 7 6 7 9 10 8 8 11 15 15 16 13 9 7 8 8 9 7 7 6 4 4 4 5 7 8 8 8 8 9 9 6 4 4 4 6 5 4
4 6 4 3 3 3 6 7 8 9 8 5 4 5 7 8 7 6 10 12 14 12 8 6 4 5 7 8 8 10 11 10 8 8 6 5 6 7 6 7 7 5 5 6 8 6 6 6 6 7 7 8 8 10 10 15 16 15 13 12 8 8 8 9 9 7 5 6 4 4 4 6 9 9 9 9 10 11 7 5 4 4 3 6 6
4 5 4 5 4 5 6 8 8 7 7 4 4 6 7 7 7 11 14 14 12 9 6 4 6 6 7 8 10 9 9 9 7 7 8 8 6 6 6 7 6 7 8 8 7 7 7 6 6 7 7 7 8 12 10 15 16 17 14 14 9 8 8 9 7 7 7 6 7 7 5 6 8 9 9 11 11 12 11 6 5 5 7 11 5
4 3 2 1 2 5 8 7 5 5 5 5 5 7 8 6 10 14 12 11 9 4 4 5 6 7 8 9 9 10 9 7 8 9 8 8 7 8 8 8 8 8 9 9 9 8 7 7 6 6 6 6 7 8 13 12 16 17 15 12 11 9 10 8 10 9 7 6 5 5 5 7 8 8 9 10 11 11 8 5 8 9 10 11 8
4 4 4 2 4 4 7 5 3 4 4 4 6 7 7 8 14 14 10 6 2 4 4 5 6 7 7 8 7 8 7 7 8 8 9 9 9 9 8 9 9 8 8 9 8 7 7 8 9 7 6 6 5 6 10 14 14 18 15 14 12 11 13 7 6 7 6 7 7 7 5 7 8 8 10 11 9 7 6 9 10 10 11 10 6
6 8 5 4 5 7 6 9 2 3 4 5 5 7 7 8 9 5 5 5 5 4 5 6 7 7 6 6 6 7 8 8 8 9 10 9 9 9 9 8 9 9 9 9 8 8 9 8 7 8 7 6 6 6 6 10 14 15 16 14 13 14 12 10 6 5 8 7 7 9 9 9 9 10 12 11 9 10 11 9 9 9 7 5 5
4 5 5 4 4 4 4 8 8 1 1 4 6 7 8 8 2 3 5 4 4 5 6 8 7 6 7 6 7 7 7 7 8 7 8 7 9 9 9 8 9 9 10 10 9 8 9 8 9 8 8 8 6 7 7 7 9 11 12 15 15 15 13 12 9 9 8 10 12 11 11 11 10 9 8 6 6 5 9 10 10 8 7 6 6
5 2 1 4 4 6 7 5 9 2 2 1 4 5 8 6 6 4 3 3 4 5 6 6 7 6 5 7 8 7 7 7 7 7 7 7 7 8 8 8 9 10 10 10 9 10 10 9 10 10 8 7 9 8 8 7 8 8 7 9 10 10 11 10 8 8 9 8 10 8 7 9 9 11 10 9 7 7 7 5 6 6 6 6 6
4 4 3 3 3 6 8 8 10 8 4 4 2 3 5 5 5 4 4 3 4 5 6 7 7 6 6 7 7 8 9 7 8 9 9 9 8 9 10 11 12 12 11 11 10 11 12 12 11 9 7 7 8 9 9 11 10 9 8 7 7 7 7 7 7 6 7 7 8 9 11 8 7 7 5 3 2 3 3 3 4 5 5 4 6
10 9 7 7 6 7 7 7 10 7 6 5 5 5 6 6 6 4 3 4 6 5 6 6 5 4 6 5 5 5 7 7 7 8 9 9 11 11 12 10 9 9 11 11 11 10 9 8 8 8 10 10 8 11 12 7 8 9 8 7 6 7 7 6 10 14 8 7 7 8 7 7 6 7 6 5 4 4 3 4 5 5 5 6 5
5 6 7 7 6 5 7 9 9 5 4 5 5 5 5 5 5 5 2 4 5 4 4 6 4 4 4 3 4 4 5 5 6 7 7 7 8 10 9 9 8 11 13 11 8 8 6 6 7 8 8 11 10 5 10 14 15 14 14 14 13 12 12 11 15 18 11 9 8 8 7 8 8 7 7 6 6 5 6 4 3 3 4 4 5
8 9 10 9 9 7 6 8 7 5 4 4 4 4 6 6 6 5 3 4 4 5 5 5 3 4 4 4 4 4 4 5 5 5 5 6 5 7 11 13 11 9 12 14 12 9 9 10 8 5 4 7 9 14 16 16 16 15 15 16 15 16 18 18 20 13 8 9 6 8 8 6 7 6 6 6 6 5 6 5 5 4 3 5 4
Wind_Direction
227 227 217 205 206 208 208 203 210 208 211 208 206 207 203 199 190 205 191 187 186 190 200 197 200 203 208 209 213 202 211 211 215 215 219 221 216 216 213 213 210 207 200 196 209 210 214 213 215 218 205 212 219 227 222 217 208 209 219 219 234 243 248 227 228 208 254 280 257 252 266 223 243 240 237 234 223 216 209 208 202 193 198 197 204
253 247 218 208 210 206 200 201 197 203 214 207 211 210 205 202 204 204 184 193 199 194 193 199 200 198 195 208 207 209 211 211 220 220 222 221 217 217 218 217 211 211 208 198 202 205 213 218 218 223 213 215 221 231 233 228 213 220 214 232 218 232 246 178 201 156 227 237 274 290 265 256 215 229 239 242 237 228 216 214 195 203 202 202 202
238 234 216 213 212 206 201 201 203 210 210 207 210 208 208 207 210 203 196 194 200 199 195 203 194 202 200 198 201 214 217 211 216 217 214 220 216 216 217 215 211 213 208 207 208 211 213 210 219 214 220 214 217 226 226 227 222 222 211 221 233 222 239 219 188 191 245 185 240 304 280 281 254 256 244 245 239 231 218 223 215 213 210 204 202
239 230 218 214 208 207 202 205 207 206 211 208 207 210 211 214 209 203 204 203 201 201 205 203 198 199 209 205 203 205 203 210 223 226 212 205 216 211 215 210 210 212 209 207 210 212 213 217 216 218 221 216 216 222 221 226 221 220 213 217 226 243 220 234 200 201 209 152 263 222 254 255 298 250 244 255 219 220 219 226 222 221 216 215 212
239 237 221 213 208 210 205 207 201 205 207 204 203 205 209 211 208 203 205 206 202 199 198 190 182 190 197 199 162 222 259 193 193 225 214 206 214 209 212 208 210 208 202 204 209 214 213 218 218 217 220 216 216 219 223 224 219 218 211 213 209 221 243 237 210 204 214 208 225 246 270 247 233 273 54 260 155 191 222 217 220 223 213 214 214
228 229 216 211 212 215 212 210 207 212 209 207 202 207 208 209 205 203 206 207 207 201 192 186 190 184 176 196 212 215 225 216 220 212 198 206 210 207 208 204 207 211 212 211 213 210 217 216 218 220 219 218 214 220 225 227 224 219 212 214 216 216 230 243 234 210 223 217 227 235 237 268 280 178 87 279 85 231 254 225 228 227 225 223 224
237 239 222 213 221 215 213 209 210 211 216 201 204 211 209 208 204 203 203 205 204 199 190 189 191 195 198 203 205 205 216 226 221 209 206 209 207 208 208 204 207 209 211 211 212 213 216 216 218 220 220 221 217 220 223 223 223 219 215 214 219 217 214 235 238 234 221 237 232 240 247 252 257 260 249 296 280 192 232 231 239 230 228 227 226
229 229 222 221 221 211 212 208 206 212 206 193 208 209 204 205 202 203 205 206 201 194 187 191 194 194 202 209 212 215 216 227 201 205 203 199 203 208 201 203 205 208 210 210 212 211 211 216 216 219 219 221 216 219 225 225 227 228 219 219 219 214 211 222 235 232 222 234 206 231 238 247 252 250 250 250 269 274 244 218 244 237 230 235 232
221 230 222 217 221 222 222 215 215 211 198 203 208 205 205 205 205 203 205 202 198 190 189 193 199 198 200 198 211 222 225 228 182 185 196 194 210 194 198 193 202 207 210 210 211 213 208 214 216 217 218 222 214 223 226 227 228 229 220 218 217 217 218 222 230 233 223 235 197 226 229 235 240 238 245 239 247 262 264 248 243 272 269 250 236
231 232 232 221 221 226 223 223 220 216 212 213 212 205 207 202 204 202 206 200 198 194 193 195 199 199 200 204 212 220 217 216 184 196 200 191 210 206 193 198 203 207 210 212 213 213 213 213 216 218 220 223 214 221 224 225 228 228 228 223 217 217 217 219 225 230 229 231 223 219 213 223 232 239 224 226 240 235 255 245 229 241 256 241 206
233 237 241 239 230 231 215 211 220 211 206 212 213 208 203 199 201 204 208 202 199 197 193 198 197 198 204 204 211 218 211 202 202 214 201 192 210 199 198 204 201 207 205 213 213 213 216 213 216 219 221 219 219 219 222 224 227 230 229 222 221 217 219 219 221 228 232 230 230 227 232 220 225 226 229 222 225 235 243 256 254 246 250 264 242
237 239 246 240 245 238 219 226 222 211 198 206 209 200 198 199 197 205 207 204 199 199 197 201 195 202 207 208 212 216 206 201 208 215 205 209 209 203 187 192 208 206 207 211 214 214 215 217 217 220 221 221 222 219 220 222 227 223 225 221 220 220 223 222 220 221 224 232 235 233 234 232 232 234 232 237 231 235 238 256 259 242 256 245 264
236 240 243 242 233 230 221 231 228 212 211 209 205 198 196 196 196 200 207 201 201 197 200 200 198 203 206 210 215 211 206 208 213 217 207 210 205 200 184 206 203 207 211 210 213 210 213 215 212 213 215 216 218 215 218 211 213 216 216 219 219 218 216 220 222 221 220 220 226 228 228 225 230 228 232 235 235 246 245 254 257 234 249 261 254
241 224 225 231 230 231 226 228 223 220 218 213 207 199 200 200 198 199 206 197 198 197 199 200 205 208 207 211 213 204 209 210 215 216 211 208 198 202 198 201 201 209 204 209 206 206 210 212 210 212 214 217 219 221 221 218 216 218 224 223 221 220 218 219 222 224 225 223 223 227 228 228 229 229 235 235 231 227 236 240 254 239 215 249 242
243 247 225 220 227 226 229 225 227 223 223 220 211 205 196 199 199 204 209 201 194 197 196 202 208 210 210 211 211 206 212 210 216 216 209 203 199 200 206 205 207 211 206 210 199 203 209 211 212 213 212 215 214 216 219 221 218 223 226 225 226 221 222 222 222 222 226 229 228 229 232 225 223 226 223 228 224 228 234 238 234 256 246 222 240
237 241 252 243 237 238 241 241 233 230 224 220 215 207 200 203 199 204 208 198 196 196 197 201 207 207 208 207 211 209 212 213 222 217 214 203 200 202 209 207 212 210 210 199 199 200 206 208 212 215 214 215 215 215 215 216 219 222 223 224 228 217 225 224 223 220 226 226 229 228 224 228 227 229 226 226 226 230 234 239 235 243 264 278 221
243 234 240 244 244 238 234 236 240 237 232 222 218 207 206 201 200 207 210 201 200 203 204 204 206 202 207 209 209 207 208 211 216 213 209 204 204 208 211 213 211 210 206 196 200 202 205 208 212 215 216 215 215 216 216 217 217 221 224 226 226 220 227 225 218 221 224 225 232 228 226 230 233 229 228 222 226 225 227 230 220 235 237 260 268
248 242 243 245 247 248 244 244 240 239 233 231 227 217 212 205 200 204 206 205 205 201 206 204 202 204 207 208 209 207 210 215 215 213 203 199 208 212 212 212 212 206 199 197 197 200 207 208 213 213 213 214 217 216 215 217 218 223 224 226 223 221 224 222 221 221 223 222 226 226 225 235 234 229 226 221 222 221 221 221 222 222 221 236 243
249 241 240 242 236 239 240 236 236 235 235 238 251 224 217 216 211 207 207 206 204 203 205 210 209 209 209 209 208 209 212 215 214 209 194 202 211 212 211 216 210 197 193 191 197 204 206 209 212 214 213 214 214 216 213 216 217 225 225 229 226 225 230 231 223 216 221 218 223 227 228 236 231 227 225 214 213 213 220 220 226 222 228 227 240
269 262 246 237 227 224 222 223 229 227 222 224 223 217 212 212 208 215 224 214 206 204 201 209 209 209 213 211 213 211 211 211 206 198 201 209 215 210 214 214 212 187 198 193 197 204 205 208 208 212 213 212 213 214 212 215 215 220 220 225 223 219 227 228 224 217 220 222 227 235 236 236 235 232 225 211 210 216 218 224 224 224 229 230 230
267 268 283 281 267 271 266 246 246 263 269 254 217 208 210 200 210 209 207 208 209 210 203 215 204 214 212 213 212 206 210 204 201 200 207 215 217 212 215 215 179 199 187 194 202 206 206 206 207 209 211 211 210 213 211 214 216 221 221 220 216 217 224 228 221 229 224 225 227 232 235 228 219 221 216 215 222 229 232 240 242 235 242 239 220
263 275 279 286 284 283 289 294 270 298 274 242 231 225 218 209 210 206 208 214 209 210 208 211 207 211 215 217 212 200 199 194 203 205 211 216 216 214 213 186 199 197 184 200 205 205 202 203 208 209 209 212 213 214 212 213 217 219 222 217 221 217 222 227 215 227 223 220 228 227 227 219 206 210 206 216 225 228 223 238 244 231 241 243 221
272 273 273 272 270 266 277 286 282 244 254 259 248 219 219 215 211 213 205 220 209 213 206 204 205 209 215 210 197 200 195 201 206 210 213 217 217 215 189 194 199 194 197 203 203 198 199 202 207 207 207 210 211 212 211 210 214 214 217 222 217 217 221 227 226 226 227 224 224 224 229 220 212 210 214 218 216 229 220 221 241 223 230 243 204
262 269 271 266 269 281 289 272 260 253 237 228 225 238 241 232 219 209 219 223 214 211 200 198 205 213 208 198 206 204 201 207 211 214 216 218 213 203 181 195 200 195 201 205 198 197 199 203 205 205 206 208 209 209 210 209 210 203 212 221 221 219 220 221 222 224 227 219 218 216 227 219 207 206 219 215 220 221 215 223 239 238 214 230 191
284 280 272 278 278 261 249 243 241 245 247 239 237 237 236 241 229 224 231 226 222 201 199 206 199 207 204 205 211 204 208 212 216 215 219 214 204 193 185 199 197 203 201 188 200 199 201 202 203 202 203 205 206 204 207 209 213 212 210 215 217 215 215 215 216 219 214 205 200 200 215 210 200 208 226 217 213 208 214 201 221 232 219 213 160
285 284 288 264 252 266 270 252 246 239 229 226 228 233 239 239 239 232 235 233 231 197 209 196 195 203 211 213 215 209 214 215 215 216 216 206 195 195 198 205 199 202 192 194 192 197 198 202 203 204 202 203 202 201 202 204 204 202 208 209 208 204 205 198 194 188 179 183 187 199 209 197 191 203 229 233 221 221 197 198 207 207 178 164 172
271 272 276 303 281 258 256 265 246 242 231 226 220 224 221 225 241 233 226 223 195 166 206 203 201 215 216 219 213 214 213 216 215 216 205 198 199 200 197 204 196 199 189 193 197 194 202 199 202 199 202 196 197 195 198 201 193 190 196 198 194 181 171 177 184 184 179 181 183 186 192 183 193 205 221 227 221 213 197 207 202 189 180 166 187
276 269 266 260 270 284 279 265 263 248 240 239 233 230 225 217 230 215 190 185 186 185 202 208 198 215 220 222 218 214 215 219 216 208 204 203 199 198 202 195 184 199 192 189 189 191 195 197 195 192 193 190 189 186 191 200 193 177 167 175 174 170 161 161 162 178 189 183 175 174 187 195 197 205 206 225 213 213 189 203 199 170 168 177 193
310 283 270 258 274 275 275 268 264 282 268 257 250 242 237 244 242 224 197 206 187 182 203 210 209 218 222 219 212 211 212 214 208 204 202 202 200 198 193 190 192 195 187 185 182 179 169 182 179 182 171 174 181 187 176 175 163 156 162 170 176 171 168 167 171 176 187 179 162 174 183 198 205 207 208 206 214 210 177 195 196 168 178 190 190
284 286 292 271 254 260 253 262 280 271 268 264 259 250 237 234 237 208 207 200 174 202 191 213 221 224 219 209 208 202 199 194 197 194 204 197 197 195 187 186 190 181 172 169 168 172 173 174 174 175 170 171 181 170 176 178 175 169 172 172 170 176 171 171 170 162 170 185 175 176 195 196 197 201 207 210 218 215 215 203 182 183 182 182 185
248 263 266 269 270 255 254 243 243 238 234 235 235 230 222 231 228 207 213 197 183 199 214 216 225 214 213 209 201 199 186 196 200 203 200 197 195 186 182 180 175 168 163 162 161 168 182 181 179 177 181 188 181 172 172 174 167 161 158 163 171 181 175 171 169 170 177 180 187 185 177 199 197 193 197 203 204 210 219 225 196 191 187 179 179
247 245 249 264 259 251 242 241 237 234 233 233 235 228 225 247 208 211 208 185 193 199 215 222 228 213 206 210 200 191 193 203 199 204 198 196 183 181 186 180 173 175 173 160 174 181 179 182 177 177 184 184 185 180 173 169 168 168 171 166 166 167 172 176 178 178 176 171 175 179 189 180 199 189 170 169 179 180 184 169 166 176 195 209 208
248 259 259 253 249 240 237 248 254 255 248 232 196 196 230 234 201 217 170 186 205 205 215 222 220 208 211 203 192 193 203 204 203 197 192 185 187 189 188 182 189 181 165 187 196 182 194 188 185 186 191 181 186 184 178 177 174 171 169 155 165 167 170 179 177 174 174 176 170 172 183 195 187 173 158 154 147 155 162 168 165 178 202 223 235
238 240 250 257 257 252 240 236 244 252 246 233 180 209 241 213 187 157 178 196 202 213 210 221 215 215 209 201 197 197 204 204 194 193 188 190 192 198 190 183 170 176 192 196 196 203 201 203 200 197 195 193 197 193 186 183 183 176 170 165 170 174 181 176 175 180 179 176 174 173 183 179 176 167 156 163 175 169 168 154 146 153 178 227 243
271 266 246 232 238 249 255 256 253 253 257 241 249 232 246 205 168 178 196 191 204 213 207 216 219 217 205 203 200 199 205 198 194 191 191 199 199 191 187 188 184 189 191 195 194 197 202 201 201 195 194 200 206 192 188 185 184 181 178 173 173 178 175 179 181 178 175 174 174 174 171 157 158 162 169 179 177 176 156 140 126 128 160 20 0
239 245 264 275 264 251 250 253 228 198 220 203 226 205 182 222 174 198 190 199 197 214 226 217 224 217 209 206 200 202 203 197 193 192 196 203 200 195 193 185 185 194 195 186 201 193 191 191 188 186 187 196 199 189 183 183 180 181 172 166 170 171 168 167 169 168 166 151 145 154 159 152 156 164 187 186 179 154 141 136 125 116 85 30 333
233 227 239 240 249 258 264 271 281 272 252 236 233 189 181 168 177 200 184 194 195 220 227 221 225 222 213 207 203 201 201 198 193 195 204 205 199 199 196 179 191 197 193 197 197 191 185 181 185 189 188 191 189 192 184 181 179 171 158 165 164 161 163 167 166 154 151 146 151 163 158 152 155 167 179 185 175 152 136 136 133 130 109 88 260
228 233 243 253 257 263 270 279 286 289 262 252 258 151 161 194 219 193 184 197 202 229 227 218 223 221 217 207 203 200 201 198 195 204 208 206 202 201 201 188 196 194 199 199 184 185 188 188 184 190 190 183 189 188 184 180 176 172 167 167 168 163 166 158 142 149 149 162 170 171 165 157 163 166 179 182 170 148 144 145 139 133 128 125 161
233 228 237 245 252 262 286 302 259 268 267 256 230 151 172 222 233 216 195 204 221 235 228 217 223 216 206 203 205 203 202 200 204 212 204 201 201 201 188 181 204 197 203 178 186 187 191 195 196 187 186 185 184 187 186 180 179 175 170 167 165 164 162 168 158 158 162 158 169 181 177 173 170 162 176 175 166 145 150 156 154 137 140 154 183
234 239 245 273 314 325 296 283 269 258 265 274 169 163 199 220 235 207 200 221 232 234 232 225 227 199 187 191 197 206 208 204 210 204 198 204 182 177 188 189 197 194 191 189 190 192 191 200 192 192 192 191 178 182 187 183 180 177 171 167 170 168 171 169 173 164 157 175 181 176 184 186 179 173 176 176 170 160 160 159 146 149 145 155 166
247 255 301 283 280 240 248 252 251 255 261 248 168 184 212 221 223 203 223 228 234 238 236 225 200 183 187 194 194 199 206 212 205 198 185 181 184 190 179 186 192 190 186 192 195 194 194 194 195 199 193 197 185 175 187 184 182 178 172 172 179 183 169 167 171 158 173 164 170 181 167 188 178 174 175 179 177 174 162 153 165 160 176 155 136
195 215 220 235 247 249 254 254 252 263 262 237 188 212 226 224 217 224 227 231 236 236 220 194 191 194 191 194 198 203 201 201 192 180 184 193 184 176 182 185 186 188 193 195 192 194 196 193 195 199 204 200 191 184 173 186 183 184 179 180 180 185 167 159 157 163 164 172 169 166 163 186 174 165 168 175 175 176 162 148 175 165 151 148 141
307 267 172 141 248 243 252 258 258 237 230 217 191 217 224 219 226 236 237 240 245 236 208 198 194 196 202 202 201 196 197 189 188 187 188 192 177 178 180 179 188 194 196 197 196 194 193 195 195 204 205 205 197 192 181 178 185 184 184 180 180 169 169 167 162 170 176 160 137 152 161 169 163 157 162 163 166 162 150 165 178 164 164 142 121
272 243 269 269 263 268 278 277 255 246 231 215 194 225 226 218 234 237 237 254 266 224 197 205 211 211 208 206 199 195 190 187 188 183 187 186 186 188 181 183 184 190 197 202 205 195 195 197 199 199 203 204 199 192 190 184 183 186 182 179 176 171 166 173 163 160 154 151 149 154 157 163 156 152 149 148 134 127 147 162 154 148 137 129 125
301 304 313 316 288 285 296 298 267 227 230 211 202 217 237 240 255 273 265 247 233 206 198 219 223 219 211 205 187 188 189 191 189 182 188 191 190 182 189 191 185 190 196 206 205 197 203 206 200 202 201 198 194 196 194 193 187 186 186 180 176 171 166 145 139 127 144 148 146 148 149 148 146 140 128 119 117 122 126 120 115 118 123 123 129
288 295 292 276 283 277 287 294 303 227 219 196 202 198 221 233 286 286 247 237 220 211 221 228 225 214 207 182 186 195 196 193 188 188 194 192 187 187 193 190 193 198 198 202 203 197 206 205 209 208 201 193 184 194 197 189 191 189 186 183 178 174 161 160 143 137 144 138 143 142 138 132 121 111 105 111 115 116 105 100 103 106 115 124 133
305 291 334 322 333 328 319 312 305 307 349 243 197 212 233 261 277 285 286 237 221 221 235 239 232 222 199 187 192 194 188 188 188 190 193 191 188 190 195 196 195 200 203 203 201 200 204 206 211 209 197 180 189 192 191 188 188 184 185 180 173 169 153 130 113 133 135 138 130 127 128 126 123 119 113 118 115 116 102 89 89 84 109 123 131
304 309 345 328 340 320 309 312 301 310 346 331 315 264 264 271 273 271 259 234 235 232 236 241 232 214 207 198 203 193 186 189 192 189 192 194 197 194 198 201 196 197 196 205 203 205 205 206 211 203 190 186 195 198 196 193 187 180 176 168 163 152 149 148 135 123 125 128 126 121 115 112 110 104 103 90 95 99 105 112 107 114 113 119 121
322 326 348 331 320 316 303 298 292 311 331 330 327 314 310 306 297 297 258 233 246 245 247 253 245 221 223 210 207 195 201 196 197 201 208 203 195 196 203 211 211 202 204 202 204 212 211 211 207 199 193 202 196 204 206 170 171 168 159 148 153 152 145 146 152 142 122 112 113 116 126 131 136 132 134 135 139 131 110 112 116 116 122 113 114
301 308 313 315 303 281 295 297 292 311 322 321 320 320 316 314 312 310 285 248 258 259 257 257 250 240 236 212 215 214 212 210 207 206 207 221 222 214 209 207 213 206 216 223 211 218 204 195 202 212 197 204 210 191 131 156 171 167 160 157 157 156 160 152 155 151 139 139 142 140 152 152 151 154 152 154 152 148 144 129 118 120 121 116 114
335 339 325 324 316 315 299 293 297 330 327 326 324 325 328 323 333 323 305 271 278 271 265 264 251 245 235 224 218 220 218 219 219 216 216 219 222 226 222 220 217 203 205 213 216 213 184 186 190 194 176 173 137 141 153 160 168 170 166 161 155 163 163 159 154 143 141 150 150 154 160 158 157 153 153 155 153 145 145 135 139 132 121 121 122